Content
SEND FEEDBACK

Daily
Averages
Monthly
Summary
Greece

ANDRAVIDHA, GREECE


Home > Europe > Greece
Elevation: 50 feet     Latitude: 37 55N     Longitude: 021 17E

WEATHER
 
SELECT A DAY
Number of Records: 87,356;   Date Range: 7/11/96 - 7/20/14
 
SHARE

PRINT THIS DATA

[ ← Previous Day ]
WEATHER ALMANAC - OCTOBER 25, 2013
[ Next Day → ]
[ °C ]   °F
Weather ElementAverageHighLow
Temperature64 °F77 °F (1:50 pm)51.8 °F (7:50 am)
Dewpoint51.7 °F57.2 °F (10:20 am)46.4 °F (7:50 am)
Humidity66.9 %88 % (2:20 am)31 % (3:00 pm)
Barometer30.13 in30.16 in (9:00 am)30.09 in (4:20 pm)
Wind Speed3 mph10.4 mph (10:50 am)
Weather ElementAverage
Visibility6 mi
Wind DirectionESE (116.9 °)

Weather ElementTotal
Precipitation---
Heating Degree Days0.6 (Base 65)
Growing Degree Days14.4 (Base 50)
Averaged from 47 records on October 25, 2013
WEATHER CONDITIONS BREAKOUT
WIND DIRECTION BREAKOUT
WEATHER BY HOUR - OCTOBER 25, 2013
[ °C ]   °F
Local TimeTemperatureDewpointHumidityBarometerVisibilityWind DirectionWind SpeedGust SpeedPrecipitationEventsConditions
12:50 AM59.0 °F53.6 °F82 %30.15 inCalmClear
2:20 AM55.4 °F51.8 °F88 %30.15 inCalmClear
2:50 AM55.4 °F51.8 °F88 %30.15 inCalmClear
3:20 AM53.6 °F50.0 °F88 %30.15 inCalmClear
4:20 AM53.6 °F50.0 °F88 %30.15 inCalmClear
4:50 AM53.6 °F50.0 °F88 %30.12 inCalmClear
5:20 AM55.4 °F51.8 °F88 %30.12 inCalmClear
5:50 AM53.6 °F50.0 °F88 %30.15 inCalmClear
6:20 AM53.6 °F50.0 °F88 %30.15 inCalmClear
6:50 AM55.4 °F50.0 °F82 %30.12 inCalmClear
7:20 AM55.4 °F50.0 °F82 %30.12 inCalmClear
7:50 AM51.8 °F46.4 °F82 %30.12 inCalmClear
8:20 AM51.8 °F48.2 °F88 %30.15 inCalmClear
8:50 AM57.2 °F51.8 °F82 %30.15 inCalmClear
9:00 AM56.0 °F52.0 °F80 %30.16 in6.0 miCalm
9:20 AM59.0 °F51.8 °F77 %30.15 inCalmClear
9:50 AM62.6 °F53.6 °F72 %30.15 inCalmClear
10:20 AM69.8 °F57.2 °F64 %30.15 inCalmClear
10:50 AM69.8 °F53.6 °F56 %30.15 inNorth (360°)10.4 mphClear
11:20 AM71.6 °F53.6 °F53 %30.15 inNorth (360°)8.1 mphClear
11:50 AM71.6 °F51.8 °F50 %30.15 inNorth (360°)6.9 mphClear
12:20 PM73.4 °F51.8 °F47 %30.15 inNorth (360°)6.9 mphClear
12:50 PM73.4 °F51.8 °F47 %30.15 inNW (320°)5.8 mphClear
1:20 PM75.2 °F53.6 °F47 %30.15 inNW (320°)5.8 mphClear
1:50 PM77.0 °F48.2 °F36 %30.12 inNNE (20°)6.9 mphClear
2:20 PM77.0 °F48.2 °F36 %30.12 inNNE (20°)6.9 mphClear
2:50 PM77.0 °F51.8 °F41 %30.12 inNorth (350°)9.2 mphClear
3:00 PM76.0 °F51.0 °F31 %30.13 in6.0 miNorth (350°)9.2 mph
3:20 PM77.0 °F51.8 °F41 %30.12 inNorth (350°)9.2 mphClear
3:50 PM77.0 °F51.8 °F41 %30.12 inNorth (350°)9.2 mphClear
4:20 PM75.2 °F48.2 °F38 %30.09 inNW (320°)9.2 mphClear
4:50 PM75.2 °F46.4 °F36 %30.09 inNW (320°)9.2 mphClear
5:20 PM73.4 °F50.0 °F44 %30.09 inNW (320°)6.9 mphClear
5:50 PM71.6 °F51.8 °F50 %30.09 inNW (320°)8.1 mphClear
6:20 PM71.6 °F51.8 °F50 %30.09 inNW (320°)8.1 mphClear
6:50 PM68.0 °F53.6 °F60 %30.12 inCalmClear
7:20 PM68.0 °F53.6 °F60 %30.12 inCalmClear
7:50 PM62.6 °F53.6 °F72 %30.12 inCalmClear
8:20 PM62.6 °F53.6 °F72 %30.12 inCalmClear
8:50 PM60.8 °F53.6 °F77 %30.12 inCalmClear
9:00 PM60.0 °F53.0 °F72 %30.15 in6.0 miCalm
9:20 PM59.0 °F53.6 °F82 %30.12 inCalmClear
9:50 PM59.0 °F53.6 °F82 %30.15 inCalmClear
10:20 PM57.2 °F53.6 °F88 %30.15 inCalmClear
10:50 PM59.0 °F53.6 °F82 %30.15 inCalmClear
11:20 PM59.0 °F53.6 °F82 %30.15 inCalmClear
11:50 PM59.0 °F51.8 °F77 %30.15 inSE (140°)4.6 mphClear
Hourly data recorded from LGAD, located miles away from Andravidha, Greece







STORIES FROM OUR PARTNERS